Home > Weather > Mobile > Past weeks

Flag for U.S.A. Weather for the Past 2 Weeks in Mobile, Alabama, U.S.A.

Now
67 °F

Sunny.


Feels Like: 67 °F
Forecast: 41 / 69 °F
Wind: 14 mph from Southwest

Location: Mobile Downtown Airport

Current Time: Feb 11, 2016 at 11:57:20 AM

Latest Report: Feb 11, 2016 at 10:53 AM


Visibility: 10 mi

Pressure: 30.22 "Hg

Humidity: 55%

Dew point: 50 °F

Location of MobileLocation

Historic Weather in Mobile — Graph

°F

Mobile Temperature Yesterday

Maximum temperature yesterday: 56 °F (at 3:53 PM)
Minimum temperature yesterday: 30 °F (at 6:53 AM)
Average temperature yesterday: 44 °F

High & Low Weather Summary for the Past Weeks

 TemperatureHumidityPressure
High68 °F (Jan 31, 11:53 AM)100% (Jan 30, 3:53 AM)30.51 "Hg (Jan 30, 3:53 AM)
Low30 °F (Feb 10, 6:53 AM)21% (Feb 8, 3:53 PM)29.85 "Hg (Feb 3, 2:53 AM)
Average51 °F67%30.12 "Hg
* Reported Jan 27 9:53 AM — Feb 11 9:53 AM, Mobile, Weather by CustomWeather, © 2016

Note: Actual official high and low records may vary slightly from our data, if they occured in-between our weather recording intervals... More about our weather records

Advertising

Mobile Weather History for the Previous 24 Hours

 ConditionsComfort  
Time TempWeatherWind HumidityBarometerVisibility
9:53 AM
Thu, Feb 11
65 °FSunny.9 mph59%30.24 "Hg10 mi
8:53 AM58 °FSunny.6 mph62%30.24 "Hg10 mi
7:53 AM50 °FSunny.5 mph74%30.24 "Hg10 mi
6:53 AM37 °FSunny.No wind93%30.24 "Hg10 mi
5:53 AM38 °FClear.No wind90%30.23 "Hg10 mi
4:53 AM39 °FClear.No wind82%30.22 "Hg10 mi
3:53 AM41 °FClear.No wind80%30.22 "Hg10 mi
2:53 AM46 °FClear.3 mph66%30.22 "Hg10 mi
1:53 AM48 °FClear.5 mph63%30.22 "Hg10 mi
12:53 AM48 °FClear.7 mph68%30.23 "Hg10 mi
11:53 PM
Wed, Feb 10
47 °FClear.5 mph66%30.22 "Hg10 mi
10:53 PM46 °FClear.3 mph66%30.23 "Hg10 mi
9:53 PM46 °FClear.5 mph63%30.24 "Hg10 mi
8:53 PM46 °FClear.3 mph63%30.25 "Hg10 mi
7:53 PM46 °FClear.6 mph58%30.26 "Hg10 mi
6:53 PM47 °FClear.7 mph52%30.25 "Hg10 mi
5:53 PM50 °FClear.7 mph44%30.26 "Hg10 mi
4:53 PM55 °FSunny.5 mph25%30.26 "Hg10 mi
3:53 PM56 °FSunny.9 mph24%30.26 "Hg10 mi
2:53 PM55 °FSunny.10 mph22%30.26 "Hg10 mi
1:53 PM53 °FSunny.10 mph23%30.28 "Hg10 mi
12:53 PM51 °FSunny.8 mph25%30.30 "Hg10 mi
11:53 AM50 °FSunny.12 mph25%30.32 "Hg10 mi
Weather by CustomWeather, © 2016

See weather overviewHow to use our weather pages